www.pogodaiklimat.ru

Погода и климат >> Архив погоды >> Боливия >> Rurrenabaque


ПОГОДА в Rurrenabaque

  • Прогноз погоды в Rurrenabaque
  • Монитор погоды в Rurrenabaque
  • Климат города

АРХИВ ПОГОДЫ в Rurrenabaque

Время (UTC), дата Ветер
(напр.,м/с)
 
Видим.   Явления Облачность Т
(С)
Тd
(С)
f
(%)
Тe
(С)
Тes
(С)
Комфортность P
(гПа)
Po
(гПа)
Тmin
(С)
Tmax
(С)
R
(мм)
R24
(мм)
S
(см)
21 15.04 ЮВ 5 20 км 5/5 600 м
[Sc diur, vesp]
+27.4 +23.8 81 +38 +38 очень
душно
1013.6 989.8 +30.6
12 16.04 штиль 0 20 км ясно +21.8 +21.0 95 +28 +31 душно 1015.6 991.9 +18.0
15 16.04 ЮВ 3 20 км 3/3 500 м
[Cu hum]
+29.0 +23.6 73 +40 +48 очень
душно
1015.9 992.7
18 16.04 штиль 0 20 км 5/5 500 м
[Cu hum]
+30.0 +22.6 65 +40 +50 очень
душно
1013.1 990.0
21 16.04 штиль 0 20 км 1/1 500 м
[Cu hum]
+30.0 +22.3 63 +39 +41 очень
душно
1010.9 988.0 +31.2
12 17.04 штиль 0 20 км ясно +23.0 +21.9 94 +31 +34 очень
душно
1011.8 988.9 +18.8
15 17.04 штиль 0 20 км 3/3 500 м
[Cu hum]
+30.0 +23.6 69 +41 +55 опасность
перегрева
1012.3 989.3
18 17.04 штиль 0 20 км 5/5 500 м
[Cu hum]
+31.7 +23.4 62 +43 +53 опасность
перегрева
1010.2 987.3
21 17.04 штиль 0 20 км 3/3 600 м
[Cu hum]
+31.0 +24.4 68 +43 +45 опасность
перегрева
1008.1 985.3 +33.0
12 18.04 штиль 0 20 км 6/1 450 м
[Cb cap Ac trans]
+23.4 +22.8 96 +33 +34 очень
душно
1011.9 989.0 +21.2
15 18.04 ЮВ 4 20 км 5/5 500 м
[Cb calv Ac trans]
+29.8 +24.1 72 +42 +46 опасность
перегрева
1013.6 990.0
18 18.04 штиль 0 8000 м осадки на расстоянии туман 9/5 500 м
[Cb calv Cs]
+24.7 +23.0 90 +33 +41 очень
душно
1012.3 989.2 4
21 18.04 штиль 0 20 км 6/1 500 м
[Cu hum Ac trans]
+27.8 +23.8 79 +38 +40 очень
душно
1009.8 986.9 +31.0
12 19.04 штиль 0 20 км ясно +22.8 +22.0 95 +31 +34 очень
душно
1012.1 989.0 +19.0 4
15 19.04 штиль 0 20 км 1/1 480 м
[Cu hum]
+29.2 +23.8 73 +40 +58 опасность
солнечного
удара
1012.7 989.6
18 19.04 штиль 0 20 км 6/6 500 м
[Cu hum]
+30.9 +24.3 68 +43 +51 опасность
перегрева
1010.6 987.5
21 19.04 штиль 0 20 км 3/3 500 м
[Cb calv]
+31.0 +24.6 69 +44 +46 опасность
перегрева
1008.1 985.2 +33.1
12 20.04 штиль 0 20 км 4/4 700 м
[Sc]
+24.4 +23.6 95 +33 +35 очень
душно
1011.7 988.0 +22.8
15 20.04 штиль 0 20 км 3/3 500 м
[Cu hum]
+30.3 +25.0 73 +43 +57 опасность
перегрева
1011.3 988.2
18 20.04 штиль 0 8000 м осадки на расстоянии 8/8 500 м
[Cb calv]
+32.0 +24.7 65 +45 +49 опасность
перегрева
1009.2 986.1
21 20.04 штиль 0 20 км 1/1 600 м
[Cu hum]
+32.0 +25.2 67 +46 +48 опасность
перегрева
1006.3 983.5 +33.0
12 21.04 ЮВ 2 20 км 8/0
[Ci fib]
+25.3 +24.4 95 +35 +37 очень
душно
1011.7 988.0 +22.2
15 21.04 штиль 0 20 км 5/5 450 м
[Sc]
+29.2 +25.8 82 +44 +53 опасность
перегрева
1012.5 988.8
18 21.04 штиль 0 8000 м осадки на расстоянии 6/6 500 м
[Cb calv Ci fib]
+31.5 +25.9 72 +47 +55 опасность
перегрева
1009.4 985.8
21 21.04 штиль 0 20 км 6/3 500 м
[Cb calv Ci]
+31.3 +26.3 75 +47 +49 опасность
перегрева
1006.5 983.4 +33.3
12 22.04 штиль 0 20 км 6/5 240 м
[Frnb Ac trans]
+24.8 +23.9 95 +34 +35 очень
душно
1010.0 986.6 +21.8
15 22.04 штиль 0 20 км 3/3 450 м
[Cu hum]
+30.2 +26.3 80 +46 +60 опасность
перегрева
1010.9 987.2
18 22.04 штиль 0 20 км 4/3 600 м
[Cb calv Ci ing]
+32.0 +25.6 69 +47 +60 опасность
перегрева
1008.4 985.0

 

Местоположение метеостанции Rurrenabaque (Боливия): широта -14.46 долгота -67.56 высота над уровнем моря 204 м.

В архиве по умолчанию представлена погода в Rurrenabaque за последнюю неделю. Архивные данные за месяц целиком и за предыдущие месяцы, начиная с января 2011 года, Вы можете получить, выбрав интересующий диапазон дат из раскрывающегося списка и нажав кнопку "Ввод!".


*Определитесь, кто Вы:
робот инопланетянин человек

Внимание! Время в таблицах - всемирное. Для получения местного времени необходимо прибавить поправку, которая в Rurrenabaque равна -4 ч.

Смотрите также архив погоды в соседних городах и на ближайших метеорологических станциях:

Погода в Reyes (Боливия) (26 км)
Погода в Santa Rosa (Боливия) (78 км)
Погода в San Borja (Боливия) (87 км)
Погода в San Ignacio De Moxo (Боливия) (217 км)
Погода в Ovejuyo (Боливия) (235 км)
Погода в La Paz (Боливия) (238 км)
Погода в Santa Ana (Боливия) (243 км)
Погода в Baures (Боливия) (243 км)
Погода в Puerto Maldonado (Перу) (273 км)
Погода в Trinidad (Боливия) (288 км)

Пояснения к столбцам:

Ветер - указаны скорость ветра в м/с - средняя за 10 мин, порывы в срок и между сроками (в фигурных скобках) и направление, откуда дует ветер: С - северный, СВ - северо-восточный, В - восточный, ЮВ - юго-восточный, Ю - южный, ЮЗ - юго-западный, З - западный, СЗ - северо-западный.
Видимость - горизонтальная дальность видимости в метрах или километрах. При видимости от 1 до 10 км при отсутствии осадков обычно наблюдается дымка, при ухудшении видимости до 1 км и менее - туман. В сухую погоду видимость может ухудшаться дымом, пылью или мглою.
Явления - указаны атмосферные явления, наблюдавшиеся в срок или в последний час перед сроком; фигурными скобками обозначены явления, наблюдавшиеся между сроками (за 1-3 часа до срока); квадратными скобками обозначены град или гололедные отложения с указанием их диаметра в мм.
Облачность - указаны через наклонную черту общая и нижняя облачность в баллах и высота нижней границы облаков в метрах; квадратными скобками обозначены формы облаков: Ci - перистые, Cs - перисто-слоистые, Cc - перисто-кучевые, Ac - высококучевые, As - высокослоистые, Sc - слоисто-кучевые, Ns - слоисто-дождевые, Cu - кучевые, Cb - кучево-дождевые. Подробнее классификацию облаков см. в Атласе облаков (PDF).
T - Температура воздуха - температура, измеренная на высоте 2 м над землей.
Td - Температура точки росы - температура, при понижении до которой содержащийся в воздухе водяной пар достигнет насыщения.
f - Относительная влажность воздуха - влажноcть воздуха, измеренная на высоте 2 м над землей.
Te - Эффективная температура - температура, которую ощущает одетый по сезону человек в тени. Характеристика душности погоды. При расчете учитывается влияние влажности воздуха и скорости ветра на теплоощущения человека.
Tes - Эффективная температура на солнце - температура, которую ощущает человек, с поправкой на солнечный нагрев. Характеристика знойности погоды. Зависит от высоты солнца над горизонтом, облачности и скорости ветра. Ночью, в пасмурную погоду, а также при ветре 12 м/с и более поправка равна нулю.
P - Атмосферное давление - приведенное к уровню моря атмосферное давление.
Po - Атмосферное давление - измеренное на уровне метеостанции атмосферное давление.
Tmin - Минимальная температура - минимум температуры воздуха на высоте 2 м над землей.
Tmax - Максимальная температура - максимум температуры воздуха на высоте 2 м над землей.
R - Количество осадков - Количество выпавших осадков за период времени, мм. При наведении курсора мыши на число - период времени, за который выпало указанное количество осадков.
R24 - Количество осадков - Количество выпавших осадков за 24 часа, мм.
S - Снежный покров - Высота снежного покрова, см. При наведении курсора мыши на число - состояние снежного покрова и степень покрытия местности в баллах.